Regional Weather Roundup
Issued by NWS

Home | Current Version | Previous Version | Text Only | Print | Product List | Glossary Off
Versions: 1 2 3 4 5 6 7 8 9 10 11 12 13 14 15 16 17 18 19 20 21 22 23 24 25 26 27 28 29 30 31 32 33 34 35 36 37 38 39 40 41 42 43 44 45 46 47 48 49 50

000
ASUS45 KABQ 232110
RWRNM
NEW MEXICO REGIONAL WEATHER ROUNDUP
NATIONAL WEATHER SERVICE ALBUQUERQUE NM
300 PM MDT WED AUG 23 2017

NOTE: "FAIR" MEANS FEW OR NO CLOUDS BELOW 12,000 FEET AGL WITH NO
       SIGNIFICANT WEATHER OR OBSTRUCTIONS TO VISION.

      THIS PRODUCT IS RELEASED AS TWO VERSIONS.  ONE VERSION NEAR
      THE TOP OF THE HOUR CONTAINING PRELIMINARY DATA FROM ALBUQUERQUE
      AND OTHER STATIONS.  A FINAL VERSION WITH ADDITIONAL DATA IS
      ISSUED ABOUT 10 MINUTES AFTER THE HOUR.

NMZ501-503-504-510>518-232200-
NORTHWEST PLATEAU/NORTHCENTRAL MOUNTAINS

CITY           SKY/WX    TMP DP  RH WIND       PRES   REMARKS
FARMINGTON     FAIR      85  42  22 SW9       30.16F
LOS ALAMOS     FAIR      72  48  42 SW6       30.33F
SANTA FE       LGT RAIN  75  54  47 NW6       30.24F
TAOS           FAIR      78  50  37 VRB5      30.31F
ANGEL FIRE     FAIR      69  47  44 SW9       30.39F

$$
NMZ402-403-502-505>509-232200-
WESTCENTRAL MOUNTAINS/SOUTHWEST MOUNTAINS

CITY           SKY/WX    TMP DP  RH WIND       PRES   REMARKS
GALLUP         FAIR      80  48  32 NE22G29   30.25F
GRANTS         FAIR      81  46  28 SE8       30.26F
SILVER CITY    FAIR      85  53  33 CALM      30.16F

$$
NMZ407-409-411-412-232200-
SOUTHERN DESERTS

CITY           SKY/WX    TMP DP  RH WIND       PRES   REMARKS
DEMING         FAIR      92  59  33 VRB5      30.07F
LAS CRUCES     FAIR      89  59  35 E6        30.10F
HOLLOMAN AFB   FAIR      94  59  31 SE6       30.09F
ALAMOGORDO     FAIR      90  57  33 W6        30.09F
T OR C         FAIR      89  51  27 NW8       30.11F

$$
NMZ519>523-232200-
CENTRAL VALLEYS/CENTRAL HIGHLANDS

CITY           SKY/WX    TMP DP  RH WIND       PRES   REMARKS
ALBUQUERQUE    PTSUNNY   84  54  35 W5        30.17F
DOUBLE EAGLE   PTSUNNY   81  55  41 MISG      30.21F
MORIARTY ARPT  LGT RAIN  71  61  69 SW7       30.25F
CLINES CORNERS FAIR      81  49  32 W8        30.29F
BELEN          FAIR      84  55  36 NE3       30.15F
SOCORRO        FAIR      86  49  27 W3        30.12F

$$
NMZ524>526-539-540-232200-
SOUTHCENTRAL MOUNTAINS

CITY           SKY/WX    TMP DP  RH WIND       PRES   REMARKS
RUIDOSO        FAIR      68  59  73 SE13G20   30.32F

$$
NMZ527>531-232200-
NORTHEAST HIGHLANDS/NORTHEAST PLAINS

CITY           SKY/WX    TMP DP  RH WIND       PRES   REMARKS
LAS VEGAS      FAIR      73  59  61 S17       30.28F
RATON          FAIR      75  58  55 S9        30.23F
CLAYTON        FAIR      74  61  63 S9        30.18F

$$
NMZ532>537-232200-
EASTCENTRAL PLAINS

CITY           SKY/WX    TMP DP  RH WIND       PRES   REMARKS
SANTA ROSA     FAIR      81  57  43 S3        30.15F
TUCUMCARI      FAIR      86  64  47 MISG      30.11F
CANNON AFB     FAIR      80  68  65 E9        30.16F
CLOVIS AIRPORT PTSUNNY   77  65  66 E8        30.16F

$$
NMZ028-029-538-232200-
SOUTHEAST PLAINS

CITY           SKY/WX    TMP DP  RH WIND       PRES   REMARKS
ROSWELL        FAIR      86  62  44 NW7       30.10F
ARTESIA        FAIR      88  63  42 E7        30.08F
CARLSBAD       FAIR      84  66  54 CALM      30.06F
HOBBS          PTSUNNY   84  63  48 E7        30.10F


$$




USA.gov is the U.S. government's official web portal to all federal, state and local government web resources and services.